Weather History for Tioga Municipal Airport, ND

Change the Weather History Date:

Thursday, January 2, 2014

  Actual Average (KISN) Record (KISN)
Temperature  
Mean Temperature -4 °F 11 °F  
Max Temperature 15 °F 21 °F 48 °F (1963)
Min Temperature -23 °F 0 °F -32 °F (1928)
Degree Days  
Heating Degree Days 70 54  
Month to date heating degree days 108  
Since 1 July heating degree days 3855  
Cooling Degree Days 0 0  
Month to date cooling degree days 0  
Year to date cooling degree days 0  
Moisture  
Dew Point -6 °F    
Average Humidity 92    
Maximum Humidity 100    
Minimum Humidity 76    
Precipitation  
Precipitation 0.00 in 0.02 in 0.25 in (1899)
Month to date precipitation 0.04  
Year to date precipitation 0.04  
Sea Level Pressure  
Sea Level Pressure 30.08 in    
Wind  
Wind Speed 5 mph (SSE)    
Max Wind Speed 18 mph    
Max Gust Speed 22 mph    
Visibility 8 miles    
Events Snow    
T = Trace of Precipitation, MM = Missing Value Source: NWS Daily Summary

Daily Weather History Graph

Daily Weather History Graph

Search for Another Location

Airport:

Trip Planner

Search our weather history database for the weather conditions in past years. The results will help you decide how hot, cold, wet, or windy it might be!

Date:

Astronomy

Jan. 02, 2014 Rise Set
Actual Time 8:42 AM CST 5:08 PM CST
Civil Twilight 8:06 AM CST 5:45 PM CST
Nautical Twilight 7:26 AM CST 6:24 PM CST
Astronomical Twilight 6:48 AM CST 7:02 PM CST
Moon 9:16 AM CST (1/2) 7:19 PM CST (1/2)
Length of Visible Light 9h 38m
Length of Day
8h 25m
Waxing Crescent, 3% of the Moon is Illuminated
Jan 2
Waxing Crescent
Jan 7
First Quarter
Jan 15
Full
Jan 23
Last Quarter
Jan 30
New

Hourly Weather History & Observations

Time (CST) Temp. Windchill Dew Point Humidity Pressure Visibility Wind Dir Wind Speed Gust Speed Precip Events Conditions
12:15 AM -4.0 °F - -7.6 °F 85% 30.30 in 10.0 mi Calm Calm - N/A   Overcast
12:35 AM -4.0 °F - -7.6 °F 85% 30.30 in 10.0 mi Calm Calm - N/A   Overcast
12:55 AM -4.0 °F -14.6 °F -7.6 °F 85% 30.31 in 10.0 mi ENE 4.6 mph - N/A   Overcast
1:15 AM -4.0 °F -14.6 °F -7.6 °F 85% 30.30 in 10.0 mi ENE 4.6 mph - N/A   Overcast
1:35 AM -5.8 °F -16.7 °F -9.4 °F 84% 30.29 in 5.0 mi East 4.6 mph - N/A   Overcast
1:55 AM -9.4 °F - -13.0 °F 84% 30.30 in 10.0 mi Calm Calm - N/A   Scattered Clouds
2:15 AM -11.2 °F - -13.0 °F 92% 30.30 in 10.0 mi Calm Calm - N/A   Clear
2:35 AM -14.8 °F -27.2 °F -18.4 °F 84% 30.29 in 10.0 mi East 4.6 mph - N/A   Clear
2:55 AM -18.4 °F -28.9 °F -22.0 °F 84% 30.30 in 10.0 mi East 3.5 mph - N/A   Mostly Cloudy
3:15 AM -13.0 °F -27.0 °F -16.6 °F 84% 30.29 in 10.0 mi East 5.8 mph - N/A   Overcast
3:35 AM -14.8 °F -24.8 °F -18.4 °F 84% 30.31 in 10.0 mi SW 3.5 mph - N/A   Mostly Cloudy
3:55 AM -16.6 °F - -20.2 °F 84% 30.30 in 10.0 mi Calm Calm - N/A   Partly Cloudy
4:15 AM -20.2 °F - -25.6 °F 76% 30.30 in 10.0 mi Calm Calm - N/A   Clear
4:35 AM -20.2 °F - -25.6 °F 76% 30.30 in 10.0 mi Calm Calm - N/A   Clear
4:55 AM -16.6 °F - -20.2 °F 84% 30.30 in 10.0 mi Calm Calm - N/A   Clear
5:15 AM -20.2 °F - -25.6 °F 76% 30.30 in 10.0 mi Calm Calm - N/A   Clear
5:35 AM -22.0 °F - -25.6 °F 83% 30.30 in 10.0 mi Calm Calm - N/A   Clear
5:55 AM -22.0 °F - -27.4 °F 76% 30.29 in 10.0 mi Calm Calm - N/A   Clear
6:15 AM -22.0 °F - -27.4 °F 76% 30.29 in 10.0 mi Calm Calm - N/A   Clear
6:35 AM -22.0 °F -37.7 °F -27.4 °F 76% 30.28 in 10.0 mi East 5.8 mph - N/A   Clear
6:55 AM -23.8 °F -35.0 °F -27.4 °F 83% 30.28 in 10.0 mi ENE 3.5 mph - N/A   Clear
7:15 AM -23.8 °F - -27.4 °F 83% 30.27 in 10.0 mi Calm Calm - N/A   Clear
7:35 AM -22.0 °F - -27.4 °F 76% 30.27 in 10.0 mi Calm Calm - N/A   Clear
7:55 AM -22.0 °F -33.0 °F -27.4 °F 76% 30.26 in 10.0 mi ENE 3.5 mph - N/A   Clear
8:15 AM -22.0 °F -33.0 °F -27.4 °F 76% 30.24 in 10.0 mi ENE 3.5 mph - N/A   Clear
8:35 AM -22.0 °F -33.0 °F -27.4 °F 76% 30.24 in 10.0 mi ENE 3.5 mph - N/A   Clear
8:55 AM -22.0 °F -35.6 °F -27.4 °F 76% 30.24 in 10.0 mi ENE 4.6 mph - N/A   Clear
9:15 AM -22.0 °F - -25.6 °F 83% 30.24 in 10.0 mi Calm Calm - N/A   Clear
9:35 AM -18.4 °F -28.9 °F -22.0 °F 84% 30.23 in 10.0 mi East 3.5 mph - N/A   Clear
9:55 AM -11.2 °F - -16.6 °F 77% 30.23 in 10.0 mi Calm Calm - N/A   Clear
10:15 AM -13.0 °F -25.1 °F -16.6 °F 84% 30.22 in 10.0 mi East 4.6 mph - N/A   Clear
10:35 AM -9.4 °F -26.8 °F -11.2 °F 92% 30.21 in 9.0 mi SSE 9.2 mph - N/A   Mostly Cloudy
10:55 AM -2.2 °F -22.2 °F -2.2 °F 100% 30.21 in 9.0 mi South 15.0 mph - N/A   Mostly Cloudy
11:15 AM -2.2 °F -18.0 °F -4.0 °F 92% 30.21 in 10.0 mi South 9.2 mph - N/A   Mostly Cloudy
11:35 AM -2.2 °F -16.8 °F -2.2 °F 100% 30.20 in 10.0 mi South 8.1 mph - N/A   Scattered Clouds
11:55 AM -2.2 °F -16.8 °F -2.2 °F 100% 30.18 in 10.0 mi South 8.1 mph - N/A   Scattered Clouds
12:15 PM -0.4 °F -14.7 °F -0.4 °F 100% 30.16 in 10.0 mi SSE 8.1 mph - N/A   Partly Cloudy
12:35 PM -0.4 °F -14.7 °F -0.4 °F 100% 30.15 in 7.0 mi South 8.1 mph - N/A   Mostly Cloudy
12:55 PM -0.4 °F -14.7 °F -0.4 °F 100% 30.13 in 8.0 mi SSE 8.1 mph - N/A   Overcast
1:15 PM 1.4 °F -13.5 °F -0.4 °F 92% 30.12 in 8.0 mi SSE 9.2 mph - N/A   Overcast
1:35 PM 1.4 °F -16.1 °F 1.4 °F 100% 30.10 in 10.0 mi SE 12.7 mph - N/A   Overcast
1:55 PM 1.4 °F -15.3 °F 1.4 °F 100% 30.08 in 10.0 mi SSE 11.5 mph - N/A   Overcast
2:15 PM 1.4 °F -14.5 °F 1.4 °F 100% 30.06 in 7.0 mi SSE 10.4 mph - N/A   Overcast
2:35 PM 1.4 °F -15.3 °F 1.4 °F 100% 30.05 in 4.0 mi South 11.5 mph - N/A   Overcast
2:55 PM 1.4 °F -11.3 °F 1.4 °F 100% 30.03 in 3.0 mi South 6.9 mph - N/A   Overcast
3:15 PM 5.0 °F -10.8 °F 5.0 °F 100% 30.02 in 2.0 mi SSE 11.5 mph - N/A Snow Light Snow
3:35 PM 5.0 °F -13.6 °F 5.0 °F 100% 30.00 in 2.0 mi SSE 16.1 mph - N/A Snow Light Snow
3:55 PM 5.0 °F -13.0 °F 5.0 °F 100% 30.00 in 2.0 mi SSE 15.0 mph - N/A   Overcast
4:15 PM 5.0 °F -11.6 °F 5.0 °F 100% 29.99 in 2.5 mi SSE 12.7 mph - N/A   Overcast
4:35 PM 5.0 °F -12.3 °F 5.0 °F 100% 29.96 in 2.0 mi SSE 13.8 mph - N/A   Overcast
4:55 PM 5.0 °F -10.8 °F 5.0 °F 100% 29.95 in 2.0 mi SSE 11.5 mph - N/A   Overcast
5:15 PM 6.8 °F -7.8 °F 6.8 °F 100% 29.94 in 3.0 mi SSE 10.4 mph - N/A   Overcast
5:35 PM 6.8 °F -12.4 °F 6.8 °F 100% 29.92 in 2.5 mi South 18.4 mph - N/A Snow Light Snow
5:55 PM 6.8 °F -8.6 °F 6.8 °F 100% 29.91 in 3.0 mi SE 11.5 mph - N/A   Overcast
6:15 PM 6.8 °F -7.8 °F 6.8 °F 100% 29.90 in 4.0 mi SSE 10.4 mph - N/A   Overcast
6:35 PM 8.6 °F -4.7 °F 8.6 °F 100% 29.88 in 4.0 mi SSE 9.2 mph - N/A   Overcast
6:55 PM 8.6 °F -7.0 °F 8.6 °F 100% 29.87 in 4.0 mi SSE 12.7 mph 18.4 mph N/A   Overcast
7:15 PM 10.4 °F -2.4 °F 10.4 °F 100% 29.85 in 4.0 mi SSE 9.2 mph - N/A   Overcast
7:35 PM 10.4 °F -3.3 °F 10.4 °F 100% 29.84 in 5.0 mi SSE 10.4 mph - N/A   Overcast
7:55 PM 10.4 °F -6.6 °F 10.4 °F 100% 29.82 in 8.0 mi South 16.1 mph 21.9 mph N/A   Overcast
8:15 PM 10.4 °F -6.0 °F 10.4 °F 100% 29.80 in 5.0 mi South 15.0 mph 20.7 mph N/A   Overcast
8:35 PM 10.4 °F -3.3 °F 10.4 °F 100% 29.79 in 7.0 mi South 10.4 mph - N/A   Overcast
8:55 PM 12.2 °F -1.0 °F 12.2 °F 100% 29.77 in 10.0 mi South 10.4 mph - N/A   Overcast
9:15 PM 12.2 °F 2.9 °F 12.2 °F 100% 29.75 in 10.0 mi South 5.8 mph - N/A   Overcast
9:35 PM 10.4 °F -2.4 °F 10.4 °F 100% 29.72 in 10.0 mi South 9.2 mph - N/A   Scattered Clouds
9:55 PM 12.2 °F 4.3 °F 12.2 °F 100% 29.71 in 10.0 mi South 4.6 mph - N/A   Clear
10:15 PM 14.0 °F 3.9 °F 14.0 °F 100% 29.70 in 10.0 mi South 6.9 mph - N/A   Clear
10:35 PM 14.0 °F 2.9 °F 14.0 °F 100% 29.69 in 10.0 mi South 8.1 mph - N/A   Clear
10:55 PM 14.0 °F 2.9 °F 14.0 °F 100% 29.68 in 10.0 mi South 8.1 mph - N/A   Clear
11:15 PM 14.0 °F 2.9 °F 14.0 °F 100% 29.66 in 10.0 mi South 8.1 mph - N/A   Clear
11:35 PM 14.0 °F 0.5 °F 14.0 °F 100% 29.64 in 10.0 mi South 11.5 mph - N/A   Clear
11:55 PM 15.8 °F 4.2 °F 15.8 °F 100% 29.63 in 10.0 mi South 9.2 mph - N/A   Clear